Location: De Har
(53.3413°N, 6.6858°E)
Time: 17:11:24
(UTC+00:00)

Cosmos 2333 Rocket - Pass Details

Date: 22 April 2026
Orbit: 842 x 860 km, 70.8° (Epoch: 9 May)

Event Time Altitude Azimuth Distance (km) Brightness Sun altitude
Rises 00:43:57 0° 327° (NNW) 3,413 5.9 -22.7°
Reaches altitude 10° 00:46:26 10° 331° (NNW) 2,475 5.1 -22.6°
Maximum altitude 00:52:05 67° 54° (NE) 918 2.5 -22.3°
Enters shadow 00:57:05 14° 136° (SE) 2,224 4.2 -22.0°
